Tracking 30510 objects as of 22-May-2025
HD Live streaming from Space Station
objects crossing your sky now

STARLINK-1624

Track STARLINK-1624 now!
10-day predictions
STARLINK-1624 is classified as:


NORAD ID: 46130
Int'l Code: 2020-057P
Perigee: 553.4 km
Apogee: 555.3 km
Inclination: 53.1 °
Period: 95.6 minutes
Semi major axis: 6925 km
RCS: Unknown
Launch date: August 18, 2020
Source: United States (US)
Launch site: AIR FORCE EASTERN TEST RANGE (AFETR)
Your satellite tracking list
Your tracking list is empty




NASA's NSSDC Master Catalog

Two Line Element Set (TLE):
1 46130U 20057P   25142.15729046  .00000223  00000-0  33847-4 0  9992
2 46130  53.0541 145.3595 0001389  92.9013 267.2135 15.06388186263341
Source of the keplerian elements: AFSPC